EAT,Max TemperatureF,Mean TemperatureF,Min TemperatureF,Max Dew PointF,MeanDew PointF,Min DewpointF,Max Humidity, Mean Humidity, Min Humidity, Max Sea Level PressureIn, Mean Sea Level PressureIn, Min Sea Level PressureIn, Max VisibilityMiles, Mean VisibilityMiles, Min VisibilityMiles, Max Wind SpeedMPH, Mean Wind SpeedMPH, Max Gust SpeedMPH,PrecipitationIn, CloudCover, Events, WindDirDegrees
2013-5-1,86,79,74,77,74,72,94,81,66,30.01,29.95,29.89,16,10,6,18,8,,0.28,5,Rain,178
2013-5-2,85,80,76,76,74,72,90,80,60,29.97,29.93,29.86,19,11,6,16,12,,0.00,6,,166
2013-5-3,84,80,75,75,74,72,100,83,62,29.98,29.93,29.86,19,10,6,20,8,,0.12,5,Rain,188
2013-5-4,79,76,74,77,75,73,100,91,83,29.99,29.93,29.89,12,7,5,21,8,,0.67,6,Rain,185
2013-5-5,83,77,74,79,76,74,100,93,82,30.01,29.96,29.92,19,10,5,9,3,,0.31,6,Rain,204
2013-5-6,86,80,76,77,76,75,94,83,71,30.01,29.97,29.92,19,16,16,20,11,,0.00,,Rain,-1
2013-5-7,86,82,77,75,72,67,88,72,53,30.03,29.98,29.94,19,16,12,14,9,,0.00,,,-1
2013-5-8,86,80,75,73,70,68,89,68,46,30.02,29.97,29.92,19,17,12,18,9,,0.00,,,-1
2013-5-9,86,80,77,75,74,73,86,78,64,30.01,29.97,29.91,19,18,16,16,10,,0.00,,,-1
2013-5-10,83,80,77,76,74,72,95,83,68,30.04,29.99,29.94,19,11,6,14,9,,0.24,5,,145
2013-5-11,86,82,77,76,75,73,94,82,62,30.06,30.00,29.95,19,12,6,17,7,,0.00,1,,190
2013-5-12,87,82,76,77,75,73,92,77,56,30.06,30.00,29.95,19,12,6,23,9,,0.00,1,,150
2013-5-13,87,82,76,76,74,72,95,79,53,30.07,30.01,29.97,19,11,6,100,15,,0.00,3,,161
2013-5-14,84,80,78,75,74,69,89,80,60,30.07,30.01,29.98,19,12,6,18,15,,0.00,6,,163
2013-5-15,82,79,76,75,74,72,89,80,73,30.04,30.00,29.95,19,13,6,14,7,,0.00,2,,226
2013-5-16,87,80,75,74,72,70,89,74,49,30.03,29.99,29.94,19,18,16,12,4,,0.00,,,-1
2013-5-17,83,78,74,75,74,71,90,76,59,30.07,30.02,29.98,19,17,12,67,17,,0.12,,,-1
2013-5-18,86,80,75,75,74,72,94,80,64,30.06,30.00,29.96,19,15,6,16,6,,0.16,1,,0
2013-5-19,85,80,75,75,73,72,87,80,70,30.04,29.97,29.73,19,15,6,12,6,,0.00,1,,153
2013-5-20,86,80,75,75,74,72,95,83,54,30.02,29.96,29.91,19,12,6,17,9,,0.00,3,,175
2013-5-21,86,80,73,75,73,70,100,79,53,30.05,29.98,29.92,19,12,6,16,9,,0.00,1,,172
2013-5-22,87,80,73,75,72,67,97,74,44,30.06,29.99,29.92,19,11,6,18,6,,0.00,3,,168
2013-5-23,87,81,75,75,73,72,94,76,52,30.04,29.97,29.89,19,10,6,17,9,,0.00,2,,158
2013-5-24,86,82,77,76,74,72,94,83,64,30.03,29.96,29.92,19,11,6,16,10,,0.00,2,,161
2013-5-25,87,82,77,75,74,73,94,84,62,30.03,29.96,29.92,19,11,6,18,11,,0.00,3,,161
2013-5-26,87,82,77,75,74,73,94,78,57,30.01,29.96,29.89,19,10,6,20,11,,0.00,4,,169
2013-5-27,86,82,77,75,74,72,94,77,55,30.04,29.95,29.92,19,11,6,21,13,,0.00,3,Rain,144
2013-5-28,87,80,73,75,73,72,97,75,57,29.99,29.95,29.89,19,11,6,14,6,,0.00,1,Rain,140
2013-5-29,87,80,72,77,73,70,94,83,48,29.99,29.95,29.89,19,12,6,18,3,,0.00,2,,140
2013-5-30,85,79,75,75,74,72,94,84,67,30.04,29.97,29.92,19,10,6,16,5,,0.04,4,Rain,165
2013-5-31,86,80,73,74,73,72,95,78,57,30.03,29.99,29.96,19,18,12,16,4,,0.00,,,-1